This is the latest recevied weather packets stored in our database for station/object KB4KY. If no packets are shown the sender has not sent any weather packets the latest 1 day(s).
| Time | Temp. | Humidity | Pressure | Rain* | Wind** | Luminosity | Snow |
|---|---|---|---|---|---|---|---|
| 1778019768 | 21.67° C | 56% | 1006 hPa | 0 mm | 1.79 m/s, 209° | - | - |
| 1778019504 | 21.67° C | 58% | 1006.1 hPa | 0 mm | 0.45 m/s, 54° | - | - |
| 1778019473 | 21.67° C | 58% | 1006.1 hPa | 0 mm | 0.45 m/s, 54° | - | - |
| 1778019162 | 21.67° C | 59% | 1006.1 hPa | 0 mm | 0 m/s | - | - |
| 1778018866 | 21.11° C | 59% | 1006 hPa | 0 mm | 0.89 m/s, 209° | - | - |
| 1778018561 | 21.67° C | 57% | 1005.9 hPa | 0 mm | 1.34 m/s, 226° | - | - |
| 1778018265 | 21.67° C | 59% | 1006.1 hPa | 0 mm | 1.34 m/s, 201° | - | - |
| 1778017961 | 21.67° C | 59% | 1006.2 hPa | 0 mm | 0.89 m/s, 198° | - | - |
| 1778017661 | 21.67° C | 60% | 1006.3 hPa | 0 mm | 2.68 m/s, 178° | - | - |
| 1778017363 | 21.67° C | 57% | 1006.4 hPa | 0 mm | 0.89 m/s, 201° | - | - |
| 1778017060 | 21.11° C | 58% | 1006.3 hPa | 0 mm | 2.24 m/s, 210° | - | - |
| 1778016760 | 21.11° C | 60% | 1006.3 hPa | 0 mm | 1.34 m/s, 213° | - | - |
| 1778016459 | 21.11° C | 58% | 1006.3 hPa | 0 mm | 4.02 m/s, 201° | - | - |
| 1778016160 | 21.11° C | 60% | 1006.3 hPa | 0 mm | 2.68 m/s, 175° | - | - |
| 1778015981 | 20.56° C | 63% | 1006.3 hPa | 0 mm | 1.79 m/s, 251° | - | - |
| 1778015861 | 21.11° C | 62% | 1006.4 hPa | 0 mm | 1.34 m/s, 229° | - | - |
| 1778015559 | 20.56° C | 63% | 1006.3 hPa | 0 mm | 1.79 m/s, 251° | - | - |
| 1778015259 | 20.56° C | 60% | 1006.4 hPa | 0 mm | 2.68 m/s, 181° | - | - |
| 1778014958 | 20.56° C | 61% | 1006.6 hPa | 0 mm | 1.79 m/s, 226° | - | - |
| 1778014658 | 20.56° C | 62% | 1006.7 hPa | 0 mm | 0.45 m/s, 219° | - | - |
| 1778014357 | 20° C | 62% | 1006.9 hPa | 0 mm | 1.79 m/s, 161° | - | - |
| 1778014061 | 20° C | 66% | 1007 hPa | 0 mm | 2.24 m/s, 146° | - | - |
| 1778013757 | 20° C | 65% | 1007 hPa | 0 mm | 0.89 m/s, 206° | - | - |
| 1778013457 | 20.56° C | 67% | 1007.1 hPa | 0 mm | 0.45 m/s, 160° | - | - |
| 1778013329 | 20° C | 70% | 1007.3 hPa | 0 mm | 0.45 m/s, 262° | - | - |
* Rain latest hour (hover to see other rain measurements)
** Current wind speed in m/s (hover to see current wind gust speed)